This is the latest recevied weather packets stored in our database for station/object OE3BCB-14. If no packets are shown the sender has not sent any weather packets the latest 10 day(s).
| Time | Temp. | Humidity | Pressure | Rain* | Wind** | Luminosity | Snow |
|---|---|---|---|---|---|---|---|
| 1778156316 | 26.11° C | 30% | 1014.5 hPa | - | - | 78 W/m² | - |
| 1778156013 | 26.67° C | 32% | 1014.6 hPa | - | - | 113 W/m² | - |
| 1778155711 | 26.11° C | 30% | 1014.5 hPa | - | - | 75 W/m² | - |
| 1778155409 | 27.78° C | 29% | 1014.6 hPa | - | - | 82 W/m² | - |
| 1778155106 | 29.44° C | 30% | 1014.6 hPa | - | - | 94 W/m² | - |
| 1778154804 | 29.44° C | 31% | 1014.7 hPa | - | - | 84 W/m² | - |
| 1778154501 | 28.89° C | 31% | 1014.7 hPa | - | - | 84 W/m² | - |
| 1778154199 | 28.33° C | 31% | 1014.9 hPa | - | - | 112 W/m² | - |
| 1778153896 | 28.89° C | 33% | 1014.8 hPa | - | - | 103 W/m² | - |
| 1778153594 | 28.89° C | 32% | 1014.9 hPa | - | - | 129 W/m² | - |
| 1778153292 | 27.78° C | 33% | 1014.9 hPa | - | - | 145 W/m² | - |
| 1778152989 | 26.67° C | 33% | 1014.8 hPa | - | - | 148 W/m² | - |
| 1778152687 | 26.67° C | 34% | 1015 hPa | - | - | 156 W/m² | - |
| 1778152384 | 24.44° C | 34% | 1015 hPa | - | - | 168 W/m² | - |
| 1778152082 | 23.33° C | 34% | 1015.1 hPa | - | - | 122 W/m² | - |
| 1778151780 | 23.33° C | 34% | 1015.1 hPa | - | - | 121 W/m² | - |
| 1778151477 | 23.33° C | 35% | 1015.1 hPa | - | - | 124 W/m² | - |
| 1778151175 | 23.33° C | 35% | 1015.2 hPa | - | - | 149 W/m² | - |
| 1778150872 | 23.33° C | 35% | 1015.2 hPa | - | - | 142 W/m² | - |
| 1778150570 | 23.33° C | 35% | 1015.3 hPa | - | - | 148 W/m² | - |
| 1778150267 | 24.44° C | 34% | 1015.4 hPa | - | - | 156 W/m² | - |
| 1778149965 | 25° C | 35% | 1015.4 hPa | - | - | 137 W/m² | - |
| 1778149663 | 26.11° C | 37% | 1015.5 hPa | - | - | 231 W/m² | - |
| 1778149360 | 23.33° C | 37% | 1015.6 hPa | - | - | 196 W/m² | - |
| 1778148755 | 22.22° C | 36% | 1015.5 hPa | - | - | 94 W/m² | - |
* Rain since midnight (hover to see other rain measurements)
** Current wind speed in m/s (hover to see current wind gust speed)